This is the latest recevied weather packets stored in our database for station/object YF9UAG-15. If no packets are shown the sender has not sent any weather packets the latest 10 day(s).
| Time | Temp. | Humidity | Pressure | Rain* | Wind** | Luminosity | Snow |
|---|---|---|---|---|---|---|---|
| 1777856940 | 33.33° C | 84% | 1008.6 hPa | - | - | - | - |
| 1777856819 | 33.33° C | 86% | 1008.6 hPa | - | - | - | - |
| 1777856698 | 33.89° C | 87% | 1008.7 hPa | - | - | - | - |
| 1777856577 | 33.33° C | 85% | 1008.8 hPa | - | - | - | - |
| 1777856456 | 33.33° C | 85% | 1008.8 hPa | - | - | - | - |
| 1777856335 | 33.33° C | 86% | 1008.7 hPa | - | - | - | - |
| 1777856214 | 32.78° C | 86% | 1008.8 hPa | - | - | - | - |
| 1777856093 | 33.33° C | 86% | 1008.8 hPa | - | - | - | - |
| 1777855972 | 32.78° C | 85% | 1008.7 hPa | - | - | - | - |
| 1777855851 | 32.78° C | 85% | 1008.9 hPa | - | - | - | - |
| 1777855730 | 33.33° C | 84% | 1008.9 hPa | - | - | - | - |
| 1777855609 | 33.33° C | 84% | 1009 hPa | - | - | - | - |
| 1777855488 | 33.33° C | 83% | 1009 hPa | - | - | - | - |
| 1777855368 | 32.78° C | 83% | 1009.1 hPa | - | - | - | - |
| 1777855246 | 32.78° C | 85% | 1009 hPa | - | - | - | - |
| 1777855126 | 32.78° C | 85% | 1009.1 hPa | - | - | - | - |
| 1777855005 | 32.78° C | 86% | 1009.1 hPa | - | - | - | - |
| 1777854884 | 33.33° C | 85% | 1009.1 hPa | - | - | - | - |
| 1777854763 | 33.33° C | 83% | 1009.2 hPa | - | - | - | - |
| 1777854642 | 33.33° C | 82% | 1009.2 hPa | - | - | - | - |
| 1777854521 | 33.89° C | 79% | 1009.3 hPa | - | - | - | - |
| 1777854400 | 33.89° C | 80% | 1009.2 hPa | - | - | - | - |
| 1777854279 | 33.33° C | 81% | 1009.2 hPa | - | - | - | - |
| 1777854158 | 33.33° C | 82% | 1009.2 hPa | - | - | - | - |
| 1777854037 | 33.89° C | 79% | 1009.3 hPa | - | - | - | - |
* Rain since midnight (hover to see other rain measurements)
** Current wind speed in m/s (hover to see current wind gust speed)